Regional Weather Roundup
Issued by NWS

Home | Current Version | Previous Version | Graphics & Text | Print | Product List | Glossary On
Versions: 1 2 3 4 5 6 7 8 9 10 11 12 13 14 15 16 17 18 19 20 21 22 23 24 25 26 27 28 29 30 31 32 33 34 35 36 37 38 39 40 41 42 43 44 45 46 47 48 49 50
000
ASUS45 KBOU 180007
RWRCO

WEATHER ROUNDUP FOR COLORADO
NATIONAL WEATHER SERVICE DENVER/BOULDER CO
600 PM MDT THU AUG 17 2017

NOTE: "FAIR" INDICATES FEW OR NO CLOUDS BELOW 12000 FEET WITH NO
SIGNIFICANT WEATHER AND/OR OBSTRUCTIONS TO VISIBILITY.

COZ001>005-013-030-031-180100-
...NORTHWEST COLORADO...

CITY           SKY/WX    TMP DP  RH WIND       PRES   REMARKS
CRAIG          FAIR      84  27  12 W20       30.18S
HAYDEN         FAIR      80  32  17 W16G23    30.21F
MEEKER         FAIR      80  38  22 S8        30.20F
RABBIT EARS PA FAIR      59  32  36 W12G23    30.51S
STEAMBOAT SPGS PTSUNNY   74  35  24 NW13      30.23S
WALDEN         FAIR      72  28  20 W14G21    30.33S
$$

COZ006>008-011-180100-
...WEST CENTRAL VALLEYS...

CITY           SKY/WX    TMP DP  RH WIND       PRES   REMARKS
GRAND JUNCTION FAIR      89  31  12 W8        30.08F
MONTROSE       FAIR      81  37  20 N8        30.18F
EAGLE          FAIR      79  35  20 W10       30.25F
RIFLE          FAIR      85  31  14 NW8       30.15F
DELTA          FAIR      91  28  10 W13G18    30.12F
NUCLA          FAIR      82  23  11 NW3       30.20F
$$

COZ017>023-064>068-180100-
...SOUTHWEST COLORADO...

CITY           SKY/WX    TMP DP  RH WIND       PRES   REMARKS
DURANGO        FAIR      81  26  13 W9        30.23F
CORTEZ         FAIR      86  25  11 NW9       30.18F
PAGOSA SPRINGS FAIR      78  23  13 SW9       30.33S
TELLURIDE      PTSUNNY   68  29  23 SE14G20   30.45S
WOLF CREEK PAS LGT RAIN  46  30  53 W3G26     30.69F
$$

COZ009-010-012-014-032>034-037-058>063-180100-
...CENTRAL COLORADO...

CITY           SKY/WX    TMP DP  RH WIND       PRES   REMARKS
ASPEN          PTSUNNY   65  37  35 SW8       30.35R
BUENA VISTA    FAIR      71  27  19 W17G25    30.33F
COPPER MTN     FAIR      48  34  57 S16G22    30.64S
BERTHOUD PASS  PTSUNNY   43  37  81 W20       30.65R
COTTONWOOD PAS FAIR      70  27  19 N5        30.48R
GUNNISON       FAIR      71  38  29 N5        30.32S
KREMMLING      FAIR      79  34  19 S3        30.30F
LEADVILLE      CLOUDY    54  34  46 E8        30.51R
MONARCH PASS   FAIR      55  28  35 W17G31    30.73F
SALIDA         FAIR      75  36  24 N9        30.35S
SUNLIGHT       CLOUDY    59  30  33 W6        30.59S
WILKERSON PASS FAIR      55  28  35 NW8G18    30.61R
$$

COZ069>075-180100-
...SAN LUIS VALLEY/SANGRE DE CRISTO MOUNTAINS...

CITY           SKY/WX    TMP DP  RH WIND       PRES   REMARKS
ALAMOSA        PTSUNNY   73  32  22 SW6       30.29S
DEL NORTE      PTSUNNY   70  32  24 SW18G30   30.34F
LA VETA PASS   NOT AVBL
SAGUACHE       FAIR      73  32  21 CALM      30.32F
$$

COZ035-036-038>040-180100-
...NORTHERN COLORADO FRONT RANGE...

CITY           SKY/WX    TMP DP  RH WIND       PRES   REMARKS
DENVER INTL AP FAIR      85  36  17 CALM      30.11F
DMNS CITY PARK   N/A     77  41  27 E8        30.11S
AURORA         MOSUNNY   78  44  29 SW5       30.15F
FRONT RANGE AP FAIR      82  37  20 SE7       30.14S
ERIE MUNI ARPT FAIR      85  32  14 E7        30.13S
BOULDER MUN AP FAIR      82  39  21 NE3       30.08F
CENTENNIAL     PTSUNNY   78  37  22 W5        30.16F
BROOMFIELD     MOSUNNY   82  34  17 MISG      30.13S
FORT COLLINS   FAIR      84  45  25 S8        30.07F
LONGMONT       NOT AVBL
$$

COZ041-046-047-076>085-087-088-180100-
...PIKES PEAK/PALMER DIVIDE AND SOUTHERN FOOTHILLS...

CITY           SKY/WX    TMP DP  RH WIND       PRES   REMARKS
COLO. SPRINGS  PTSUNNY   76  47  35 E12       30.21R
A. F. ACADEMY  PTSUNNY   72  42  34 N8        30.23R
SCHRIEVER AFB  RAIN      72  48  42 NE6       30.22R
CHEYENNE MTN   PTSUNNY   71  47  42 CALM      30.21S
ELLICOTT       LGT RAIN N/A N/A N/A NE5       30.20R
FALCON         FAIR      74  40  28 N13G24    30.27R
FORT CARSON    FAIR      76  48  37 NE7       30.17R
LIMON          FAIR      74  45  35 SW5       30.13F
MONUMENT HILL  FAIR      70  39  32 CALM      30.29S
CANON CITY     SUNNY     84  45  24 SE3       30.11S
WALSENBURG     FAIR      84  32  15 NW5       30.15S
TRINIDAD       FAIR      80  43  26 S14       30.13S
$$

COZ042>045-048>051-090-091-180100-
...NORTHEAST COLORADO...

CITY           SKY/WX    TMP DP  RH WIND       PRES   REMARKS
GREELEY ARPT   FAIR      84  50  30 S8        30.06F
AKRON          FAIR      79  45  29 N8        30.07F
BURLINGTON     FAIR      81  60  48 S7        30.05F
WRAY           NOT AVBL
YUMA           FAIR      79  27  14 N8        30.02F
STERLING       FAIR      79  50  36 W9        30.00S
HOLYOKE        FAIR      81  54  39 SW8       29.98F
FORT MORGAN    FAIR      87  32  14 W9        30.05F
$$

COZ086-089-092>099-180100-
...SOUTHEAST COLORADO...

CITY           SKY/WX    TMP DP  RH WIND       PRES   REMARKS
PUEBLO         FAIR      84  45  25 E14       30.06S
LA JUNTA       FAIR      84  48  28 N20G28    30.07R
LAMAR          FAIR      91  47  21 CALM      29.99S
SPRINGFIELD      N/A     76  63  64 SW7       30.05F
$$



USA.gov is the U.S. government's official web portal to all federal, state and local government web resources and services.